Hourly Data Report for October 24, 2021

DRYDEN REGIONAL
ONTARIO
Current Station Operator: NAVCAN

49°49'39.000" N
92°44'39.000" W
412.70 m
6032125
71527
YHD

Download Data

Hourly Data (October 2021)
Hourly Data Report for October 24, 2021
TIME
LST
Temp Definition
°C
Dew Point Definition
°C
Rel Hum Definition
%
Precip. Amount Definition
mm

Wind Dir Definition
10's deg

Wind Spd Definition
km/h
Visibility Definition
km
Stn Press Definition
kPa
Hmdx Definition


Wind Chill Definition


Weather Definition


00:00 0.7 -0.2 94 0.0 1 8 16.1 96.94     LegendNANA
01:00 0.0 -0.6 96 0.0 3 9 16.1 96.94   -3 LegendNANA
02:00 -0.2 -0.6 97 0.0 4 5 16.1 96.95   -2 LegendNANA
03:00 -0.2 -0.6 97 0.0 7 5 16.1 96.97   -2 LegendNANA
04:00 -0.5 -1.2 95 0.0 8 8 16.1 97.00   -3 LegendNANA
05:00 -0.8 -1.2 97 0.0 5 8 16.1 96.99   -4 LegendNANA
06:00 -1.1 -1.7 96 0.0 7 15 16.1 96.99   -6 LegendNANA
07:00 -1.0 -1.7 95 0.0 8 18 16.1 97.02   -6 LegendNANA
08:00 -0.7 -1.4 95 0.0 5 18 4.8 97.06   -6 Snow
09:00 -0.3 -1.4 92 0.0 7 17 16.1 97.12   -5 LegendNANA
10:00 0.9 -1.3 85 0.0 13 18 16.1 97.19     LegendNANA
11:00 0.7 -1.7 84 0.0 12 11 16.1 97.25     LegendNANA
12:00 1.8 -1.5 79 0.0 LegendMM 4 16.1 97.24     LegendNANA
13:00 2.4 -1.4 76 0.0 8 11 16.1 97.24     LegendNANA
14:00 4.2 -1.3 68 0.0 8 11 16.1 97.17     LegendNANA
15:00 4.1 -1.4 67 0.0 8 11 16.1 97.20     LegendNANA
16:00 4.3 -0.9 69 0.0 10 5 16.1 97.25     LegendNANA
17:00 2.6 -1.2 76 0.0 6 9 16.1 97.27     LegendNANA
18:00 1.5 -1.3 81 0.0 6 13 16.1 97.24     LegendNANA
19:00 0.8 -1.6 84 0.0 6 17 16.1 97.24     LegendNANA
20:00 0.7 -1.2 87 0.0 6 13 16.1 97.25     LegendNANA
21:00 0.2 -1.6 88 0.0 7 11 16.1 97.31     LegendNANA
22:00 0.0 -1.3 91 0.0 5 5 16.1 97.36   -2 LegendNANA
23:00 -0.6 -1.7 92 0.0 5 8 16.1 97.41   -3 LegendNANA

Notes on Data Quality.

Legend

  • E = Estimated
  • M = Missing
  • NA = Not Available*
  • [empty] = Indicates an unobserved value
Date modified: